START_TIME,STEP,MOV.,M6,t_acc.,M7,t_acc.,M19,t_acc.,H36,t_acc.
1979-03-06 08:18:26.460 ,0,0,0.,12.0,0.,12.0,0.,12.0,0.,12.0
1979-03-06 08:18:38.460 ,0,0,,0,,0,,0,,0
1979-03-06 08:18:48.660 ,7,1,0.,12.0,0.,12.0,0.,12.0,0.,12.0
1979-03-06 08:19:00.660 ,7,1,0.,12.0,0.,12.0,0.,12.0,0.,12.0
1979-03-06 08:19:12.660 ,4,1,0.,12.0,0.,12.0,0.,12.0,0.,12.0
1979-03-06 08:19:24.660 ,4,1,0.,12.0,0.,12.0,0.,12.0,0.,12.0
1979-03-06 08:19:36.660 ,0,1,0.,12.0,0.,12.0,0.,12.0,0.,12.0
1979-03-06 08:19:48.660 ,0,1,0.,12.0,0.,12.0,0.,12.0,0.,12.0
1979-03-06 08:20:00.660 ,3,1,0.,12.0,0.,12.0,0.,12.0,0.,12.0
1979-03-06 08:20:12.660 ,3,1,0.,12.0,0.,12.0,0.,12.0,0.,12.0
1979-03-06 08:20:24.660 ,7,1,0.,12.0,0.,12.0,0.,12.0,0.,12.0
1979-03-06 08:20:36.660 ,7,1,0.,12.0,0.,12.0,0.,12.0,0.,12.0
1979-03-06 08:20:48.660 ,4,1,0.,12.0,0.,12.0,0.,12.0,0.,12.0
1979-03-06 08:21:00.660 ,4,1,0.,12.0,0.,12.0,0.,12.0,0.,12.0
1979-03-06 08:21:12.660 ,0,1,0.,12.0,0.,12.0,0.,12.0,0.,12.0
1979-03-06 08:21:24.660 ,0,1,0.,12.0,0.,12.0,0.,12.0,0.,12.0
1979-03-06 08:21:36.660 ,3,1,0.,12.0,0.,12.0,0.,12.0,0.,12.0
1979-03-06 08:21:48.660 ,3,1,0.,12.0,0.,12.0,0.,12.0,0.,12.0
1979-03-06 08:22:00.660 ,7,1,0.,12.0,0.,12.0,0.,12.0,0.,12.0
1979-03-06 08:22:12.660 ,7,1,0.,12.0,0.,12.0,0.,12.0,0.,12.0
1979-03-06 08:22:24.660 ,4,1,0.,12.0,0.,12.0,0.,12.0,0.,12.0
1979-03-06 08:22:36.660 ,4,1,0.,12.0,0.,12.0,0.,12.0,0.,12.0
1979-03-06 08:22:48.660 ,0,1,0.,12.0,0.,12.0,0.,12.0,0.,12.0
1979-03-06 08:23:00.660 ,0,1,0.,12.0,0.,12.0,0.,12.0,0.,12.0
1979-03-06 08:23:12.660 ,3,1,0.,12.0,0.,12.0,0.,12.0,0.,12.0
1979-03-06 08:23:24.660 ,3,1,0.,12.0,0.,12.0,0.,12.0,0.,12.0
1979-03-06 08:23:36.660 ,7,1,0.,12.0,0.,12.0,0.,12.0,0.,12.0
1979-03-06 08:23:48.660 ,7,1,0.,12.0,0.,12.0,0.,12.0,0.,12.0
1979-03-06 08:24:00.660 ,4,1,0.,12.0,0.,12.0,0.,12.0,0.,12.0
1979-03-06 08:24:12.660 ,4,1,0.,12.0,0.,12.0,0.,12.0,0.,12.0
1979-03-06 08:24:24.660 ,0,1,0.,12.0,0.,12.0,0.,12.0,0.,12.0
1979-03-06 08:24:36.660 ,0,1,0.,12.0,0.,12.0,0.,12.0,0.,12.0
1979-03-06 08:24:48.660 ,3,1,0.,12.0,0.,12.0,0.,12.0,0.,12.0
1979-03-06 08:25:00.660 ,3,1,0.,12.0,0.,12.0,0.,12.0,0.,12.0
1979-03-06 08:25:12.660 ,7,1,0.,12.0,0.,12.0,0.,12.0,0.,12.0
1979-03-06 08:25:24.660 ,7,1,0.,12.0,0.,12.0,0.,12.0,0.,12.0
1979-03-06 08:25:36.660 ,4,1,0.,12.0,0.,12.0,0.,12.0,0.,12.0
1979-03-06 08:25:48.660 ,4,1,0.,12.0,0.,12.0,0.,12.0,0.,12.0
1979-03-06 08:26:00.660 ,0,1,0.,12.0,0.,12.0,0.,12.0,0.,12.0
1979-03-06 08:26:12.660 ,0,1,0.,12.0,0.,12.0,0.,12.0,0.,12.0
1979-03-06 08:26:24.660 ,3,1,0.,12.0,0.,12.0,0.,12.0,0.,12.0
1979-03-06 08:26:36.660 ,3,1,0.,12.0,0.,12.0,0.,12.0,0.,12.0
1979-03-06 08:26:48.660 ,7,1,0.,12.0,0.,12.0,0.,12.0,0.,12.0
1979-03-06 08:27:00.660 ,7,1,0.,12.0,0.,12.0,0.,12.0,0.,12.0
1979-03-06 08:27:12.660 ,4,1,0.,12.0,0.,12.0,0.,12.0,0.,12.0
1979-03-06 08:27:24.660 ,4,1,0.,12.0,0.,12.0,0.,12.0,0.,12.0
1979-03-06 08:27:36.660 ,0,1,0.,12.0,0.,12.0,0.,12.0,0.,12.0
1979-03-06 08:27:48.660 ,0,1,0.,12.0,0.,12.0,0.,12.0,0.,12.0
1979-03-06 08:28:00.660 ,3,1,0.,12.0,0.,12.0,0.,12.0,0.,12.0
1979-03-06 08:28:12.660 ,3,1,0.,12.0,0.,12.0,0.,12.0,0.,12.0
1979-03-06 08:28:24.660 ,7,1,0.,12.0,0.,12.0,0.,12.0,0.,12.0
1979-03-06 08:28:36.660 ,7,1,0.,12.0,0.,12.0,0.,12.0,0.,12.0
1979-03-06 08:28:48.660 ,4,1,0.,12.0,0.,12.0,0.,12.0,0.,12.0
1979-03-06 08:29:00.660 ,4,1,0.,12.0,0.,12.0,0.,12.0,0.,12.0
1979-03-06 08:29:12.660 ,0,1,0.,12.0,0.,12.0,0.,12.0,0.,12.0
1979-03-06 08:29:24.660 ,0,1,0.,12.0,0.,12.0,0.,12.0,0.,12.0
1979-03-06 08:29:36.660 ,3,1,0.,12.0,0.,12.0,0.,12.0,0.,12.0
1979-03-06 08:29:48.660 ,3,1,0.,12.0,0.,12.0,0.,12.0,0.,12.0
1979-03-06 08:30:00.660 ,7,1,0.,12.0,0.,12.0,0.,12.0,0.,12.0
1979-03-06 08:30:12.660 ,7,1,0.,12.0,0.,12.0,0.,12.0,0.,12.0
1979-03-06 08:30:24.660 ,4,1,0.,12.0,0.,12.0,0.,12.0,0.,12.0
1979-03-06 08:30:36.660 ,4,1,0.,12.0,0.,12.0,0.,12.0,0.,12.0
1979-03-06 08:30:48.660 ,0,1,0.,12.0,0.,12.0,0.,12.0,0.,12.0
1979-03-06 08:31:00.660 ,0,1,0.,12.0,0.,12.0,0.,12.0,0.,12.0
1979-03-06 08:31:12.660 ,3,1,0.,12.0,0.,12.0,0.,12.0,0.,12.0
1979-03-06 08:31:24.660 ,3,1,0.,12.0,0.,12.0,0.,12.0,0.,12.0
1979-03-06 08:31:36.660 ,7,1,0.,12.0,0.,12.0,0.,12.0,0.,12.0
1979-03-06 08:31:48.660 ,7,1,0.,12.0,0.,12.0,0.,12.0,0.,12.0
1979-03-06 08:32:00.660 ,4,1,0.,12.0,0.,12.0,0.,12.0,0.,12.0
1979-03-06 08:32:12.660 ,4,1,0.,12.0,0.,12.0,0.,12.0,0.,12.0
1979-03-06 08:32:24.660 ,0,1,0.,12.0,0.,12.0,0.,12.0,0.,12.0
1979-03-06 08:32:36.660 ,0,1,0.,12.0,0.,12.0,0.,12.0,0.,12.0
1979-03-06 08:32:48.660 ,3,1,0.,12.0,0.,12.0,0.,12.0,0.,12.0
1979-03-06 08:33:00.660 ,3,1,0.,12.0,0.,12.0,0.,12.0,0.,12.0
1979-03-06 08:33:12.660 ,7,1,0.,12.0,0.,12.0,0.,12.0,0.,12.0
1979-03-06 08:33:24.660 ,7,1,0.,12.0,0.,12.0,0.,12.0,0.,12.0
1979-03-06 08:33:36.660 ,4,1,0.,12.0,0.,12.0,0.,12.0,0.,12.0
1979-03-06 08:33:48.660 ,4,1,0.,12.0,0.,12.0,0.,12.0,0.,12.0
1979-03-06 08:34:00.660 ,0,1,0.,12.0,0.,12.0,0.,12.0,0.,12.0
1979-03-06 08:34:12.660 ,0,1,0.,12.0,0.,12.0,0.,12.0,0.,12.0
1979-03-06 08:34:24.660 ,3,1,0.,12.0,0.,12.0,0.,12.0,0.,12.0
1979-03-06 08:34:36.660 ,3,1,0.,12.0,0.,12.0,0.,12.0,0.,12.0
1979-03-06 08:34:48.660 ,7,1,0.,12.0,0.,12.0,0.,12.0,0.,12.0
1979-03-06 08:35:00.660 ,7,1,0.,12.0,0.,12.0,0.,12.0,0.,12.0
1979-03-06 08:35:12.660 ,4,1,0.,12.0,0.,12.0,0.,12.0,0.,12.0
1979-03-06 08:35:24.660 ,4,1,0.,12.0,0.,12.0,0.,12.0,0.,12.0
1979-03-06 08:35:36.660 ,0,1,0.,12.0,0.,12.0,0.,12.0,0.,12.0
1979-03-06 08:35:48.660 ,0,1,0.,12.0,0.,12.0,0.,12.0,0.,12.0
1979-03-06 08:36:00.660 ,3,1,0.,12.0,0.,12.0,0.,12.0,0.,12.0
1979-03-06 08:36:12.660 ,3,1,0.,12.0,0.,12.0,0.,12.0,0.,12.0
1979-03-06 08:36:24.660 ,7,1,0.,12.0,0.,12.0,0.,12.0,0.,12.0
1979-03-06 08:36:36.660 ,7,1,0.,12.0,0.,12.0,0.,12.0,0.,12.0
1979-03-06 08:36:48.660 ,4,1,0.,12.0,0.,12.0,0.,12.0,0.,12.0
1979-03-06 08:37:00.660 ,4,1,0.,12.0,0.,12.0,0.,12.0,0.,12.0
1979-03-06 08:37:12.660 ,0,1,0.,12.0,0.,12.0,0.,12.0,0.,12.0
1979-03-06 08:37:24.660 ,0,1,0.,12.0,0.,12.0,0.,12.0,0.,12.0
1979-03-06 08:37:36.660 ,3,1,0.,12.0,0.,12.0,0.,12.0,0.,12.0
1979-03-06 08:37:48.660 ,3,1,0.,12.0,0.,12.0,0.,12.0,0.,12.0
1979-03-06 08:38:00.660 ,7,1,0.,12.0,0.,12.0,0.,12.0,0.,12.0
1979-03-06 08:38:12.660 ,7,1,0.,12.0,0.,12.0,0.,12.0,0.,12.0
1979-03-06 08:38:24.660 ,6,1,0.,12.0,0.,12.0,0.,12.0,0.,12.0
1979-03-06 08:38:36.660 ,6,1,0.,12.0,0.,12.0,0.,12.0,0.,12.0
1979-03-06 08:38:48.660 ,5,1,0.,12.0,0.,12.0,0.,12.0,0.,12.0
1979-03-06 08:39:00.660 ,5,1,0.,12.0,0.,12.0,0.,12.0,0.,12.0
1979-03-06 08:39:12.660 ,4,1,0.,12.0,0.,12.0,0.,12.0,0.,12.0
1979-03-06 08:39:24.660 ,4,1,0.,12.0,0.,12.0,0.,12.0,0.,12.0
1979-03-06 08:39:36.660 ,3,1,0.,12.0,0.,12.0,0.,12.0,0.,12.0
1979-03-06 08:39:48.660 ,3,1,0.,12.0,0.,12.0,0.,12.0,0.,12.0
1979-03-06 08:40:00.660 ,2,1,0.,12.0,0.,12.0,0.,12.0,0.,12.0
1979-03-06 08:40:12.660 ,2,1,0.,12.0,0.,12.0,0.,12.0,0.,12.0
1979-03-06 08:40:24.660 ,1,1,0.,12.0,0.,12.0,0.,12.0,0.,12.0
1979-03-06 08:40:36.660 ,1,1,0.,12.0,0.,12.0,0.,12.0,0.,12.0
1979-03-06 08:40:48.660 ,0,1,0.,12.0,0.,12.0,0.,12.0,0.,12.0
1979-03-06 08:41:00.660 ,0,1,1.,12.0,0.,12.0,0.,12.0,0.,12.0
1979-03-06 08:41:12.660 ,0,1,0.,12.0,0.,12.0,0.,12.0,0.,12.0
1979-03-06 08:41:24.660 ,0,1,0.,12.0,0.,12.0,0.,12.0,0.,12.0
1979-03-06 08:41:36.660 ,1,1,0.,12.0,0.,12.0,0.,12.0,0.,12.0
1979-03-06 08:41:48.660 ,1,1,0.,12.0,0.,12.0,0.,12.0,0.,12.0
1979-03-06 08:42:00.660 ,2,1,0.,12.0,0.,12.0,0.,12.0,0.,12.0
1979-03-06 08:42:12.660 ,2,1,0.,12.0,0.,12.0,0.,12.0,0.,12.0
1979-03-06 08:42:24.660 ,3,1,0.,12.0,0.,12.0,0.,12.0,0.,12.0
1979-03-06 08:42:36.660 ,3,1,0.,12.0,0.,12.0,0.,12.0,0.,12.0
1979-03-06 08:42:48.660 ,4,1,0.,12.0,0.,12.0,0.,12.0,0.,12.0
1979-03-06 08:43:00.660 ,4,1,0.,12.0,0.,12.0,0.,12.0,0.,12.0
1979-03-06 08:43:12.660 ,5,1,0.,12.0,0.,12.0,0.,12.0,0.,12.0
1979-03-06 08:43:24.660 ,5,1,0.,12.0,0.,12.0,0.,12.0,0.,12.0
1979-03-06 08:43:36.660 ,6,1,0.,12.0,0.,12.0,0.,12.0,0.,12.0
1979-03-06 08:43:48.660 ,6,1,0.,12.0,0.,12.0,0.,12.0,0.,12.0
1979-03-06 08:44:00.660 ,7,1,0.,12.0,0.,12.0,0.,12.0,0.,12.0
1979-03-06 08:44:12.660 ,7,1,0.,12.0,0.,12.0,0.,12.0,0.,12.0
1979-03-06 08:44:24.660 ,7,1,0.,12.0,0.,12.0,0.,12.0,0.,12.0
1979-03-06 08:44:36.660 ,7,1,0.,12.0,0.,12.0,0.,12.0,0.,12.0
1979-03-06 08:44:48.660 ,6,1,0.,12.0,0.,12.0,0.,12.0,0.,12.0
1979-03-06 08:45:00.660 ,6,1,0.,12.0,0.,12.0,0.,12.0,0.,12.0
1979-03-06 08:45:12.660 ,5,1,0.,12.0,0.,12.0,0.,12.0,0.,12.0
1979-03-06 08:45:24.660 ,5,1,0.,12.0,0.,12.0,0.,12.0,0.,12.0
1979-03-06 08:45:36.660 ,4,1,0.,12.0,0.,12.0,0.,12.0,0.,12.0
1979-03-06 08:45:48.660 ,4,1,0.,12.0,0.,12.0,0.,12.0,0.,12.0
1979-03-06 08:46:00.660 ,3,1,0.,12.0,0.,12.0,0.,12.0,0.,12.0
1979-03-06 08:46:12.660 ,3,1,0.,12.0,0.,12.0,0.,12.0,0.,12.0
1979-03-06 08:46:24.660 ,2,1,0.,12.0,0.,12.0,0.,12.0,0.,12.0
1979-03-06 08:46:36.660 ,2,1,0.,12.0,0.,12.0,0.,12.0,0.,12.0
1979-03-06 08:46:48.660 ,1,1,0.,12.0,0.,12.0,0.,12.0,0.,12.0
1979-03-06 08:47:00.660 ,1,1,0.,12.0,0.,12.0,0.,12.0,0.,12.0
1979-03-06 08:47:12.660 ,0,1,0.,12.0,0.,12.0,0.,12.0,0.,12.0
1979-03-06 08:47:24.660 ,0,1,0.,12.0,0.,12.0,0.,12.0,0.,12.0
1979-03-06 08:47:36.660 ,0,1,0.,12.0,0.,12.0,0.,12.0,0.,12.0
1979-03-06 08:47:48.660 ,0,1,0.,12.0,0.,12.0,0.,12.0,0.,12.0
1979-03-06 08:48:00.660 ,1,1,0.,12.0,0.,12.0,0.,12.0,0.,12.0
1979-03-06 08:48:12.660 ,1,1,0.,12.0,0.,12.0,0.,12.0,0.,12.0
1979-03-06 08:48:24.660 ,2,1,0.,12.0,0.,12.0,0.,12.0,0.,12.0
1979-03-06 08:48:36.660 ,2,1,0.,12.0,0.,12.0,0.,12.0,0.,12.0
1979-03-06 08:48:48.660 ,3,1,0.,12.0,0.,12.0,0.,12.0,0.,12.0
1979-03-06 08:49:00.660 ,3,1,0.,12.0,0.,12.0,0.,12.0,0.,12.0
1979-03-06 08:49:12.660 ,4,1,0.,12.0,0.,12.0,0.,12.0,0.,12.0
1979-03-06 08:49:24.660 ,4,1,0.,12.0,0.,12.0,0.,12.0,0.,12.0
1979-03-06 08:49:36.660 ,5,1,0.,12.0,0.,12.0,0.,12.0,0.,12.0
1979-03-06 08:49:48.660 ,5,1,0.,12.0,0.,12.0,0.,12.0,0.,12.0
1979-03-06 08:50:00.660 ,6,1,0.,12.0,0.,12.0,0.,12.0,0.,12.0
1979-03-06 08:50:12.660 ,6,1,0.,12.0,0.,12.0,0.,12.0,0.,12.0
1979-03-06 08:50:24.660 ,7,1,0.,12.0,0.,12.0,0.,12.0,0.,12.0
1979-03-06 08:50:36.660 ,7,1,0.,12.0,0.,12.0,0.,12.0,0.,12.0
1979-03-06 08:50:48.660 ,7,1,0.,12.0,0.,12.0,0.,12.0,0.,12.0
1979-03-06 08:51:00.660 ,7,1,0.,12.0,0.,12.0,0.,12.0,0.,12.0
1979-03-06 08:51:12.660 ,6,1,0.,12.0,0.,12.0,0.,12.0,0.,12.0
1979-03-06 08:51:24.660 ,6,1,0.,12.0,0.,12.0,0.,12.0,0.,12.0
1979-03-06 08:51:36.660 ,5,1,0.,12.0,0.,12.0,0.,12.0,0.,12.0
1979-03-06 08:51:48.660 ,5,1,0.,12.0,0.,12.0,0.,12.0,0.,12.0
1979-03-06 08:52:00.660 ,4,1,0.,12.0,0.,12.0,0.,12.0,0.,12.0
1979-03-06 08:52:12.660 ,4,1,0.,12.0,0.,12.0,0.,12.0,0.,12.0
1979-03-06 08:52:24.660 ,3,1,0.,12.0,0.,12.0,0.,12.0,0.,12.0
1979-03-06 08:52:36.660 ,3,1,0.,12.0,0.,12.0,0.,12.0,0.,12.0
1979-03-06 08:52:48.660 ,2,1,0.,12.0,0.,12.0,0.,12.0,0.,12.0
1979-03-06 08:53:00.660 ,2,1,0.,12.0,0.,12.0,0.,12.0,0.,12.0
1979-03-06 08:53:12.660 ,1,1,0.,12.0,0.,12.0,0.,12.0,0.,12.0
1979-03-06 08:53:24.660 ,1,1,0.,12.0,0.,12.0,0.,12.0,0.,12.0
1979-03-06 08:53:36.660 ,0,1,0.,12.0,0.,12.0,0.,12.0,0.,12.0
1979-03-06 08:53:48.660 ,0,1,0.,12.0,0.,12.0,0.,12.0,0.,12.0
1979-03-06 08:54:00.660 ,0,1,0.,12.0,0.,12.0,0.,12.0,0.,12.0
1979-03-06 08:54:12.660 ,0,1,0.,12.0,0.,12.0,0.,12.0,0.,12.0
1979-03-06 08:54:24.660 ,1,1,0.,12.0,0.,12.0,0.,12.0,0.,12.0
1979-03-06 08:54:36.660 ,1,1,0.,12.0,0.,12.0,0.,12.0,0.,12.0
1979-03-06 08:54:48.660 ,2,1,0.,12.0,0.,12.0,0.,12.0,0.,12.0
1979-03-06 08:55:00.660 ,2,1,0.,12.0,0.,12.0,0.,12.0,0.,12.0
1979-03-06 08:55:12.660 ,3,1,0.,12.0,0.,12.0,0.,12.0,0.,12.0
1979-03-06 08:55:24.660 ,3,1,0.,12.0,0.,12.0,0.,12.0,0.,12.0
1979-03-06 08:55:36.660 ,4,1,0.,12.0,0.,12.0,0.,12.0,0.,12.0
1979-03-06 08:55:48.660 ,4,1,0.,12.0,0.,12.0,0.,12.0,0.,12.0
1979-03-06 08:56:00.660 ,5,1,0.,12.0,0.,12.0,0.,12.0,0.,12.0
1979-03-06 08:56:12.660 ,5,1,0.,12.0,0.,12.0,0.,12.0,0.,12.0
1979-03-06 08:56:24.660 ,6,1,0.,12.0,0.,12.0,0.,12.0,0.,12.0
1979-03-06 08:56:36.660 ,6,1,0.,12.0,0.,12.0,0.,12.0,0.,12.0
1979-03-06 08:56:48.660 ,7,1,,0,,0,,0,,0
1979-03-06 08:57:00.660 ,7,1,0.,12.0,0.,12.0,0.,12.0,0.,12.0
1979-03-06 08:57:12.660 ,7,1,0.,12.0,0.,12.0,0.,12.0,0.,12.0
1979-03-06 08:57:24.660 ,7,1,0.,12.0,0.,12.0,0.,12.0,0.,12.0
1979-03-06 08:57:36.660 ,6,1,0.,12.0,0.,12.0,0.,12.0,0.,12.0
1979-03-06 08:57:48.660 ,6,1,0.,12.0,0.,12.0,0.,12.0,0.,12.0
1979-03-06 08:58:00.660 ,5,1,0.,12.0,0.,12.0,0.,12.0,0.,12.0
1979-03-06 08:58:12.660 ,5,1,0.,12.0,0.,12.0,0.,12.0,0.,12.0
1979-03-06 08:58:24.660 ,4,1,0.,12.0,0.,12.0,0.,12.0,0.,12.0
1979-03-06 08:58:36.660 ,4,1,0.,12.0,0.,12.0,0.,12.0,0.,12.0
1979-03-06 08:58:48.660 ,3,1,0.,12.0,0.,12.0,0.,12.0,0.,12.0
1979-03-06 08:59:00.660 ,3,1,0.,12.0,0.,12.0,0.,12.0,0.,12.0
1979-03-06 08:59:12.660 ,2,1,0.,12.0,0.,12.0,0.,12.0,0.,12.0
1979-03-06 08:59:24.660 ,2,1,0.,12.0,0.,12.0,0.,12.0,0.,12.0
1979-03-06 08:59:36.660 ,1,1,0.,12.0,0.,12.0,0.,12.0,0.,12.0
1979-03-06 08:59:48.660 ,1,1,0.,12.0,0.,12.0,0.,12.0,0.,12.0
1979-03-06 09:00:00.660 ,0,1,0.,12.0,0.,12.0,0.,12.0,0.,12.0
1979-03-06 09:00:12.660 ,0,1,0.,12.0,0.,12.0,0.,12.0,0.,12.0
